Погода в Красной Горбатке

Россия / Владимирская область     55°52′12″N   41°46′19″E
темп.,
°C
ветер,
м/с
пор.,
м/с
влажн.,
%
обл.,
%
осадки,
мм/ч
давл.,
гПа
погр.,
м
25 июля, вс
вс2500:00+14зсз2257100 0.0 101747
03:00+14сз2257100 0.0 101845
06:00+14зсз1264100 0.0 102095
09:00+18з234710 0.0 1020764
12:00+22сз343388 0.0 10202677
15:00+22сз343356 0.0 10201984
18:00+19зюз224812 0.0 1021178
21:00+17юз225026 0.0 102124
26 июля, пн
пн2600:00+13з226624 0.0 102229
03:00+13з237182 0.0 102345
06:00+16зюз266269 0.0 1023138
09:00+21зюз344695 0.0 1023495
12:00+24з353590 0.0 10232277
15:00+24зсз3537100 0.0 10222066
18:00+23зсз35425 0.0 10211178
21:00+18зюз3456100 0.0 102160
27 июля, вт
вт2700:00+17зюз346044 0.0 102173
03:00+17з396085 0.0 1021190
06:00+17з37665 0.0 1021185
09:00+23ссз24495 0.0 1021650
12:00+27сз343527 0.0 10202533
15:00+25с3544100 0.0 10191027
18:00+23ссз235295 0.0 1018199
21:00+19с347284 0.3 101967
28 июля, ср
ср2800:00+15с119193 1.3 101915
03:00+15ююз118821 1.7 101811
06:00+17вюв11845 0.1 101739
09:00+22ююз11612 0.1 1016488
12:00+27зюз24402 0.0 10151724
15:00+24зюз235284 0.0 101356
18:00+24зюз4956100 0.1 1012438
21:00+19з2476100 0.8 101172
29 июля, чт
чт2900:00+17зсз2595100 1.4 1011121
03:00+17юв4997100 7.5 1009380
06:00+16юв499798 3.1 1007501
09:00+17ююв3597100 8.5 1006348
12:00+19з3590100 0.1 1005503
15:00+21з578482 1.1 1005900
18:00+20з599145 1.1 1005801
21:00+18з49964 1.4 1005352